Powrót do katalogu

FENGYUN 1C DEB

AktywnyPO
NORAD 30414·DEBRIS·🇨🇳 China

Wystrzelony May 10, 1999 z Taiyuan Satellite Launch Center

Loading…

Następne Przeloty (najbliższe 24 godziny)

TLE

ŚwieżeSource: Space-Track

Epoka: Sep 14, 2026, 10:23 UTC

1 30414U 99025AED 26257.43266200  .00003162  00000-0  10622-2 0  9997
2 30414  99.1014  74.5605 0056401 101.3728 259.3800 14.37029084 10357

Śledź FENGYUN 1C DEB w czasie rzeczywistym z AllMySat

Download on the App Store